KCEC

Del Norte County Airport

Airport
ICAO code
KCEC
Summary
ICAO Region
NAM
ICAO Territory
Location

Cresent City, California,

Coordinates
41° 46' 48" N , 124° 14' 11" W
KCC
Airport WX
Fog
Metar
Observation
KCEC 031933Z AUTO 15017G23KT 3SM -RA BKN028 BKN037 OVC050 10/07 A3017 RMK AO2 RAB22 P0002 T01000067
Station
Crescent City, Jack McNamara Field Airport
Date/Time
2023-02-03 19:33:00
Wind direction
150°
Wind speed
17 kts
Lowest cloud amount
broken clouds
Temperature
10°C
Dew point
6.7°C
Humidity
79%
Weather condition
light rain

Description

Del Norte County Regional Airport, also known as Jack McNamara Field, is a public use airport located 6 km northwest of the central business district of Crescent City, in Del Norte County, California.

Climatology

Crescent City has a Mediterranean climate (Köppen climate classification Csb that is sometimes classified as an oceanic climate due to its high annual rainfall. It is one of the wettest places in California: the annual rainfall is 67 in (1,700 mm). Most of the rain falls in the months from October to March, the wettest month being December with 11 inches (280 mm) of precipitation. The driest month is July with less than 0.5 in (13 mm) of rain.

Airport map

Aerial View

SKYbrary Partners:

Safety knowledge contributed by: